Tracking 29892 objects as of 21-Nov-2024
HD Live streaming from Space Station
objects crossing your sky now

STARLINK-2244

Track STARLINK-2244 now!
10-day predictions
STARLINK-2244 is classified as:


NORAD ID: 48588
Int'l Code: 2021-041AM
Perigee: 536.8 km
Apogee: 538.6 km
Inclination: 53.1 °
Period: 95.2 minutes
Semi major axis: 6908 km
RCS: Unknown
Launch date: May 15, 2021
Source: United States (US)
Launch site: AIR FORCE EASTERN TEST RANGE (AFETR)
Your satellite tracking list
Your tracking list is empty




NASA's NSSDC Master Catalog

Two Line Element Set (TLE):
1 48588U 21041AM  24325.91668981  .01215920  00000-0  65183-1 0  9999
2 48588  53.0533  98.4600 0001266  87.8347 151.1740 15.11849442  5781
Source of the keplerian elements: AFSPC